User: anonymous   Login
Location: Unspecified
(0.0000°N, 0.0000°E)
Time: 12:00:54
(UTC+00:00)
Language:

DNEPR OBJECT Z - Orbit

View from above orbital plane
View from above orbital plane
View from above satellite
View from above satellite

Ground track
Ground track

The orbit data is extracted from the following two-line orbital elements,

1 39439U 13066Z   18175.62383970 +.00000503 +00000-0 +68101-4 0  9992
2 39439 097.5931 203.0211 0067042 131.6153 229.0831 14.81507897246683
Epoch (UTC): 24 June 2018 14:58:19
Eccentricity: 0.0067042
inclination: 97.5931°
perigee height: 577 km
apogee height: 671 km
right ascension of ascending node: 203.0211°
argument of perigee: 131.6153°
revolutions per day: 14.81507897
mean anomaly at epoch: 229.0831°
orbit number at epoch: 24668

The dashed part of the orbit path shows where the satellite is in the earth's shadow,  

DLR